Airfield :
LOGIN :

Register | Disclaimer

   EN    FR    IT 

 










Legend :    VFR   Marginal VFR   IFR   Intensive IFR   Very Intensive IFR
Visi :
Ceiling :
>= 8 km
>= 3000ft
5 to 8 km
1000 to 3000 ft
1500m to 5 km
500 to 1000 ft
800 to 1500m
200 to 500 ft
< 800m
< 200 ft
Symbols :   Thunderstorms  Fog  Heavy snow  Heavy precipitations  Wind > 20 kt
SIGMETs :     Misc.  Thunderstorms  Icing  Turbulence  Mountain Waves  Volcanic Ashes







- Airport Elevation : 121 ft
- IATA code : HUY
- Download approach charts


EGNJ - Humberside

CURRENT METAR :
  • 180650Z VRB03KT CAVOK 02/01 Q1026

EXPIRED METARs :
  • 180620Z 24004KT 210V290 CAVOK 04/01 Q1025
  • 180550Z 29008KT CAVOK 04/01 Q1025
  • 180520Z AUTO 29007KT 9999 NCD 04/02 Q1024
  • 180450Z AUTO 30008KT 9999 NCD 04/02 Q1024
  • 180420Z AUTO 30010KT 9999 NCD 04/02 Q1024

TAF TAF EGNJ
Valid from the 18 at 06:00 until the 18 at 15:00 UTC


180456Z 1806/1815 30008KT CAVOK
PROB30 1806/1815 6000
ATIS : +44 1652 682 020
No reported NOTAMs for that airfield.



MET'MAP, your aeronautical weather chart ! - Copyright ORBIFLY December 2007 - Disclaimer

ORBIFLY MET'MAP TEAM :

Programming & Development : Alexandra Zaïnal
Concept & Development : Baudouin d'Aumeries
Co-Development & Prog : Marc-Olivier Méhu
Technical & hardware support : Manuel Goepfert

Contact : metmap@orbifly.com




SOURCES & CREDITS :

   NOAA